{"data":{"norad_id":57149,"intl_designator":"2023-090BA","name":"STARLINK-5778","alt_names":[],"object_type":"PAYLOAD","status":"ACTIVE","operator":null,"country":"US","launch_date":"2023-06-23","launch_site_code":"AFETR","launch_vehicle":null,"mission":null,"orbit_class":"UNKNOWN","rcs_meters":null,"size_class":null,"mass_kg":null,"dimensions":null,"purposes":["comms"],"wikipedia_slug":null,"has_3d_model":false,"image_url":null,"decayed_at":null,"tle_current":{"epoch":"2026-05-25T04:00:03.998880Z","epoch_age_seconds":63878,"freshness":"FRESH","line1":"1 57149U 23090BA  26145.16671295  .00030096  00000+0  11289-2 0  9995","line2":"2 57149  43.0004 176.6383 0001792 265.1314 228.5095 15.26685054  5787","mean_motion":15.26685054,"eccentricity":0.0001792,"inclination_deg":43.0004,"raan_deg":176.6383,"arg_perigee_deg":265.1314,"mean_anomaly_deg":228.5095,"bstar":0.0011289,"rev_number":578,"period_min":94.322008080653,"perigee_km":484.5001903144,"apogee_km":486.96020031721,"semimajor_km":6863.8671953158,"source":"CELESTRAK","updated_at":"2026-05-25T13:38:18.249654Z"}}}